Weather History for Norfolk, VA

Change the Weather History Date:

Thursday, November 22, 2012

  Actual Average Record
Temperature  
Mean Temperature 50 °F 51 °F  
Max Temperature 53 °F 59 °F 78 °F (1991)
Min Temperature 47 °F 43 °F 21 °F (1879)
Degree Days  
Heating Degree Days 15 14  
Month to date heating degree days 325 247  
Since 1 July heating degree days 467 404  
Cooling Degree Days 0 0  
Month to date cooling degree days 0 1  
Year to date cooling degree days 1850 1621  
Moisture  
Dew Point 43 °F    
Average Humidity 79    
Maximum Humidity 86    
Minimum Humidity 71    
Precipitation  
Precipitation 0.00 in 0.10 in 1.48 in (1924)
Month to date precipitation 0.87 2.31  
Year to date precipitation 43.80 42.43  
Snow  
Snow 0.00 in 0.00 in 0.00 in (2002)
Month to date snowfall 0.0 0.0  
Since 1 July snowfall 0.0 0.0  
Snow Depth 0.00 in    
Sea Level Pressure  
Sea Level Pressure 30.16 in    
Wind  
Wind Speed 12 mph (North)    
Max Wind Speed 21 mph    
Max Gust Speed 28 mph    
Visibility 10 miles    
Events      
T = Trace of Precipitation, MM = Missing Value Source: NWS Daily Summary

Daily Weather History Graph

Daily Weather History Graph

Search for Another Location

Airport:

Trip Planner

Search our weather history database for the weather conditions in past years. The results will help you decide how hot, cold, wet, or windy it might be!

Date:

Astronomy

Nov. 22, 2012 Rise Set
Actual Time 6:50 AM EST 4:51 PM EST
Civil Twilight 6:22 AM EST 5:19 PM EST
Nautical Twilight 5:51 AM EST 5:50 PM EST
Astronomical Twilight 5:20 AM EST 6:21 PM EST
Moon 1:28 PM EST (11/22) 1:15 AM EST (11/22)
Length of Visible Light 10h 56m
Length of Day
10h 00m
Waxing Gibbous, 71% of the Moon is Illuminated
Nov 22
Waxing Gibbous
Nov 28
Full
Dec 6
Last Quarter
Dec 13
New
Dec 20
First Quarter

Hourly Weather History & Observations

Time (EST) Temp. Dew Point Humidity Pressure Visibility Wind Dir Wind Speed Gust Speed Precip Events Conditions
12:51 AM 48.0 °F 41.0 °F 77% 30.14 in 10.0 mi NNE 16.1 mph - N/A   Unknown
1:51 AM 48.9 °F 41.0 °F 74% 30.14 in 10.0 mi North 12.7 mph - N/A   Clear
2:51 AM 48.9 °F 41.0 °F 74% 30.13 in 10.0 mi NNE 15.0 mph 24.2 mph N/A   Clear
3:51 AM 48.0 °F 41.0 °F 77% 30.12 in 10.0 mi NNE 16.1 mph 23.0 mph N/A   Clear
4:51 AM 48.9 °F 43.0 °F 80% 30.13 in 10.0 mi North 17.3 mph 25.3 mph N/A   Clear
5:51 AM 48.0 °F 42.1 °F 80% 30.14 in 10.0 mi North 17.3 mph 25.3 mph N/A   Clear
6:51 AM 48.0 °F 42.1 °F 80% 30.16 in 10.0 mi North 15.0 mph 21.9 mph N/A   Clear
7:51 AM 48.9 °F 43.0 °F 80% 30.19 in 10.0 mi North 15.0 mph - N/A   Clear
8:51 AM 50.0 °F 41.0 °F 71% 30.20 in 10.0 mi NNE 18.4 mph 26.5 mph N/A   Clear
9:51 AM 51.1 °F 42.1 °F 71% 30.20 in 10.0 mi North 15.0 mph 23.0 mph N/A   Clear
10:51 AM 51.1 °F 43.0 °F 74% 30.20 in 10.0 mi North 16.1 mph 19.6 mph N/A   Scattered Clouds
11:51 AM 51.1 °F 43.0 °F 74% 30.18 in 10.0 mi North 11.5 mph 23.0 mph N/A   Partly Cloudy
12:51 PM 52.0 °F 44.1 °F 74% 30.17 in 10.0 mi North 13.8 mph 19.6 mph N/A   Partly Cloudy
1:51 PM 52.0 °F 44.1 °F 74% 30.16 in 10.0 mi North 13.8 mph - N/A   Scattered Clouds
2:51 PM 52.0 °F 44.1 °F 74% 30.15 in 10.0 mi North 12.7 mph 23.0 mph N/A   Clear
3:51 PM 52.0 °F 43.0 °F 71% 30.16 in 10.0 mi North 9.2 mph 18.4 mph N/A   Clear
4:51 PM 51.1 °F 43.0 °F 74% 30.16 in 10.0 mi North 9.2 mph - N/A   Clear
5:24 PM 51.8 °F 42.8 °F 71% 30.17 in 10.0 mi North 10.4 mph - N/A   Mostly Cloudy
5:51 PM 51.1 °F 43.0 °F 74% 30.16 in 10.0 mi North 10.4 mph - N/A   Mostly Cloudy
6:04 PM 50.0 °F 42.8 °F 76% 30.16 in 10.0 mi North 9.2 mph - N/A   Scattered Clouds
6:51 PM 50.0 °F 44.1 °F 80% 30.17 in 10.0 mi North 6.9 mph - N/A   Clear
7:51 PM 50.0 °F 44.1 °F 80% 30.17 in 10.0 mi North 5.8 mph - N/A   Clear
8:51 PM 48.9 °F 45.0 °F 86% 30.17 in 10.0 mi North 6.9 mph - N/A   Clear
9:51 PM 48.9 °F 45.0 °F 86% 30.16 in 10.0 mi North 4.6 mph - N/A   Clear
10:51 PM 48.0 °F 45.0 °F 89% 30.15 in 10.0 mi Calm Calm - N/A   Clear
11:51 PM 46.9 °F 44.1 °F 90% 30.14 in 10.0 mi NNE 4.6 mph - N/A   Clear